Retour au catalogue

DELTA 4 R/B

ActifGTO
NORAD 27555·ROCKET BODY·🇺🇸 United States

Lancé Nov 20, 2002 depuis Cape Canaveral Space Force Station

Loading…

TLE

PériméSource: Space-Track

Époque: Sep 11, 2026, 18:55 UTC

1 27555U 02051B   26254.78876009  .00000047  00000-0  74319-3 0  9994
2 27555  14.1308 351.1532 7116816 306.7027   7.3793  2.35983855204944

Suivez DELTA 4 R/B en temps réel avec AllMySat

Download on the App Store